Location: Jackson
(42.2460°N, 84.4010°W)
Time: 19:01:25
(UTC-04:00)

Courier 1B Rocket - Pass Details

Date: 11 February 2026
Orbit: 920 x 1201 km, 28.2° (Epoch: 12 March)

Event Time Altitude Azimuth Distance (km) Brightness Sun altitude
Rises 02:13:25 0° 254° (WSW) 3,882 - -56.7°
Reaches altitude 10° 02:16:46 10° 240° (WSW) 2,973 - -56.3°
Maximum altitude 02:22:10 22° 193° (SSW) 2,260 - -55.7°
Drops below altitude 10° 02:27:46 10° 146° (SE) 3,090 - -55.0°
Sets 02:31:20 0° 132° (SE) 4,074 - -54.5°
